FW9743 Weather Reports


time (UTC)temp
C
wind
direction
speed
KPH
gust
KPH
rain 1hr
cm
rain 24hr
cm
rain mn
cm
humidity
%
barometer
mb
20260507074552 17 144 9.7 16.1 0.00 0.00 0.00 76 1014.4
20260507073051 17 146 8.0 11.3 0.00 0.00 0.00 77 1014.3
20260507071550 17 157 8.0 14.5 0.00 0.00 0.00 77 1014.4
20260507070103 17 165 4.8 11.3 0.00 0.00 0.00 78 1014.3
20260507064555 17 111 1.6 6.4 0.00 0.00 0.00 81 1014.2
20260507063051 16 157 0.0 4.8 0.00 0.00 0.00 83 1014.3
20260507061547 16 0 0.0 3.2 0.00 0.00 0.00 86 1014.3
20260507060045 16 159 3.2 24.1 0.00 0.00 0.00 86 1014.3
20260507054605 16 0 0.0 4.8 0.00 0.00 0.00 84 1014.0
20260507053058 16 0 0.0 4.8 0.00 0.00 0.00 83 1013.8
20260507051556 16 233 0.0 6.4 0.00 0.00 0.00 86 1013.7
20260507050053 16 240 1.6 6.4 0.00 0.00 0.00 89 1013.8
20260507044556 15 172 3.2 9.7 0.00 0.00 0.00 89 1013.5
20260507043052 15 182 3.2 9.7 0.00 0.00 0.00 88 1013.6
20260507041601 15 167 4.8 12.9 0.00 0.00 0.00 88 1013.5
20260507040053 15 155 4.8 9.7 0.00 0.00 0.00 86 1013.1
20260507034545 15 0 0.0 3.2 0.00 0.00 0.00 86 1012.9
20260507033048 15 0 0.0 1.6 0.00 0.00 0.00 86 1012.9
20260507031554 16 0 1.6 8.0 0.00 0.00 0.00 85 1012.8
20260507030051 16 0 0.0 4.8 0.00 0.00 0.00 85 1012.6
20260507024553 16 196 1.6 4.8 0.00 0.00 0.00 84 1012.6
20260507023051 16 0 1.6 4.8 0.00 0.00 0.00 83 1012.3
20260507021600 16 234 1.6 6.4 0.00 0.00 0.00 83 1012.1
20260507020107 16 243 1.6 9.7 0.00 0.00 0.00 82 1012.1
20260507014618 16 265 1.6 11.3 0.00 0.00 0.00 81 1012.1
20260507013051 16 276 0.0 9.7 0.00 0.00 0.00 81 1012.1
20260507011558 16 217 1.6 6.4 0.00 0.00 0.00 81 1011.9
20260507010050 16 222 1.6 6.4 0.00 0.00 0.00 82 1011.8
20260507004550 16 132 1.6 3.2 0.00 0.00 0.00 80 1011.9
20260507003049 16 132 1.6 3.2 0.00 0.00 0.00 79 1011.9
20260507001601 17 200 0.0 4.8 0.00 0.00 0.00 77 1011.8
20260507000118 17 246 1.6 4.8 0.00 0.00 0.00 76 1011.7
20260506234610 17 234 0.0 3.2 0.00 0.00 0.00 75 1011.8
20260506233051 17 240 3.2 6.4 0.00 0.00 0.00 72 1011.7
20260506231555 17 254 1.6 4.8 0.00 0.00 0.00 71 1011.6
20260506230059 17 238 1.6 6.4 0.00 0.00 0.00 70 1011.5
20260506224558 18 274 4.8 12.9 0.00 0.00 0.00 68 1011.3
20260506223055 18 234 4.8 11.3 0.00 0.00 0.00 67 1011.1
20260506221559 18 221 4.8 8.0 0.00 0.00 0.00 66 1011.0
20260506220049 18 196 3.2 9.7 0.00 0.00 0.00 66 1010.9
20260506214547 18 198 4.8 9.7 0.00 0.00 0.00 65 1010.6
20260506213050 18 187 3.2 8.0 0.00 0.00 0.00 65 1010.4
20260506211554 18 202 4.8 8.0 0.00 0.00 0.00 64 1010.4
20260506210048 18 196 3.2 8.0 0.00 0.00 0.00 64 1010.3
20260506204547 17 169 6.4 9.7 0.00 0.00 0.00 65 1010.2
20260506203052 17 140 8.0 12.9 0.00 0.00 0.00 63 1010.0
20260506201550 18 117 6.4 8.0 0.00 0.00 0.00 62 1010.0
20260506200153 18 145 4.8 6.4 0.00 0.00 0.00 59 1009.8
20260506194919 19 120 4.8 6.4 0.00 0.00 0.00 57 1009.7
20260506193259 20 123 3.2 4.8 0.00 0.00 0.00 57 1009.8
20260506192012 20 107 3.2 6.4 0.00 0.00 0.00 56 1009.6
20260506190047 20 110 3.2 3.2 0.00 0.00 0.00 54 1009.5
20260506184556 21 107 4.8 6.4 0.00 0.00 0.00 54 1009.5
20260506183101 21 73 4.8 6.4 0.00 0.00 0.00 53 1009.4
20260506181602 21 73 3.2 4.8 0.00 0.00 0.00 53 1009.1
20260506180052 22 88 3.2 6.4 0.00 0.00 0.00 52 1008.9
20260506174553 23 103 4.8 6.4 0.00 0.00 0.00 51 1008.8
20260506173119 24 115 4.8 6.4 0.00 0.00 0.00 46 1008.8
20260506171552 25 123 3.2 6.4 0.00 0.00 0.00 44 1008.8
20260506170104 25 136 4.8 9.7 0.00 0.00 0.00 45 1008.8
20260506164547 25 128 6.4 14.5 0.00 0.00 0.00 45 1009.0
20260506163056 25 152 3.2 11.3 0.00 0.00 0.00 44 1009.0
20260506161546 25 134 6.4 11.3 0.00 0.00 0.00 45 1009.2
20260506160047 26 167 3.2 8.0 0.00 0.00 0.00 42 1009.2
20260506154606 26 0 0.0 9.7 0.00 0.00 0.00 43 1009.2
20260506153047 26 149 8.0 16.1 0.00 0.00 0.00 42 1009.3
20260506151550 26 153 6.4 16.1 0.00 0.00 0.00 42 1009.5
20260506150048 26 141 14.5 22.5 0.00 0.00 0.00 41 1009.6
20260506144553 26 147 6.4 19.3 0.00 0.00 0.00 41 1009.8
20260506143049 26 144 11.3 17.7 0.00 0.00 0.00 39 1009.7
20260506141551 26 0 3.2 17.7 0.00 0.00 0.00 39 1009.9
20260506140049 26 149 12.9 19.3 0.00 0.00 0.00 40 1010.1
20260506134545 26 174 11.3 25.7 0.00 0.00 0.00 41 1010.1
20260506133058 26 178 12.9 19.3 0.00 0.00 0.00 42 1010.4
20260506131547 26 173 9.7 19.3 0.00 0.00 0.00 39 1010.6
20260506130052 26 254 3.2 20.9 0.00 0.00 0.00 41 1010.8
20260506124548 26 123 8.0 27.4 0.00 0.00 0.00 41 1011.0
20260506123049 26 173 6.4 29.0 0.00 0.00 0.00 42 1011.1
20260506121547 26 153 11.3 24.1 0.00 0.00 0.00 41 1011.3
20260506120047 26 148 16.1 22.5 0.00 0.00 0.00 49 1011.5
20260506114551 26 113 8.0 16.1 0.00 0.00 0.00 44 1011.7
20260506113048 26 219 6.4 19.3 0.00 0.00 0.00 44 1011.9
20260506111551 25 214 4.8 22.5 0.00 0.00 0.00 45 1012.0
20260506110049 25 188 12.9 24.1 0.00 0.00 0.00 47 1012.0
20260506104609 25 132 9.7 17.7 0.00 0.00 0.00 47 1012.1
20260506103047 25 132 9.7 22.5 0.00 0.00 0.00 47 1012.2
20260506101550 24 211 6.4 17.7 0.00 0.00 0.00 45 1012.4
20260506100047 24 163 14.5 22.5 0.00 0.00 0.00 46 1012.5
20260506094547 24 163 1.6 17.7 0.00 0.00 0.00 48 1012.8
20260506093046 23 159 11.3 19.3 0.00 0.00 0.00 45 1012.9
20260506091555 23 144 16.1 22.5 0.00 0.00 0.00 45 1012.9
20260506090052 23 123 6.4 16.1 0.00 0.00 0.00 49 1013.2
20260506084550 23 144 9.7 17.7 0.00 0.00 0.00 48 1013.1
20260506083051 23 153 8.0 16.1 0.00 0.00 0.00 52 1013.0
20260506081557 22 125 8.0 14.5 0.00 0.00 0.00 50 1013.0